User: anonymous   Login
Location: Unspecified
(0.0000°N, 0.0000°E)
Time: 16:53:56
(UTC+02:00)
Language:

Resurs 1-3 - Orbit

View from above orbital plane
View from above orbital plane
View from above satellite
View from above satellite

Ground track
Ground track

The orbit data is extracted from the following two-line orbital elements,

1 23342U 94074A   17147.72029382 +.00000059 +00000-0 +15062-4 0  9993
2 23342 098.0799 185.8537 0001650 112.9152 247.2233 14.79266640214755
Epoch (UTC): 27 May 2017 17:17:13
Eccentricity: 0.0001650
inclination: 98.0799°
perigee height: 630 km
apogee height: 633 km
right ascension of ascending node: 185.8537°
argument of perigee: 112.9152°
revolutions per day: 14.79266640
mean anomaly at epoch: 247.2233°
orbit number at epoch: 21475

The dashed part of the orbit path shows where the satellite is in the earth's shadow,  

DLR